Temperature
17 17 16 16 16 16 15 15 15 15 14 14 14 14 14 14 13 14 13 13 13 13 13 13 13 13 13 13 13 13 13 12 12 12 12 12 12 12 12 12 12 12 12
17 17 16 16 16 16 15 15 15 15 14 14 14 14 14 14 13 13 13 13 13 13 13 13 13 13 13 13 13 13 13 12 12 12 12 12 12 12 12 12 12 12 12
17 17 16 16 16 16 15 15 15 15 15 14 14 14 14 13 13 13 13 13 13 13 13 13 13 13 13 13 13 13 12 12 12 12 12 12 12 12 12 12 12 12 12
17 17 16 16 16 16 15 15 15 15 15 14 14 14 14 13 13 13 13 13 13 13 13 13 13 13 13 13 12 12 12 12 12 12 12 12 11 11 11 11 12 12 12
17 17 17 16 16 15 15 15 15 15 15 14 14 14 13 13 13 13 13 13 13 13 13 13 13 12 12 12 12 12 12 12 12 11 11 11 11 11 11 11 11 11 11
17 17 17 16 16 16 15 15 15 15 14 14 14 14 14 13 13 13 13 13 13 13 13 13 12 12 12 12 12 12 11 11 11 11 11 11 10 10 10 10 10 10 10
17 17 17 16 16 16 16 15 15 15 15 14 14 14 14 13 13 13 13 13 13 13 13 12 12 12 12 12 12 11 11 11 11 11 10 10 10 10 10 10 9 9 9
17 17 16 16 16 16 15 15 15 15 15 14 14 14 14 14 13 13 13 13 13 13 13 12 12 12 12 11 11 11 11 11 11 10 10 10 10 9 9 9 9 9 9
17 17 16 16 16 16 15 15 15 15 15 14 14 14 14 14 13 13 13 13 13 13 12 12 12 12 12 11 11 11 11 10 10 10 10 9 9 9 9 9 8 8 8
17 17 16 16 16 15 15 15 15 15 14 14 14 14 14 14 13 13 13 13 12 12 12 12 12 12 11 11 11 10 10 10 10 10 9 9 9 9 8 8 8 8 7
17 16 16 16 15 15 15 15 15 14 14 14 14 14 13 13 13 13 12 12 12 12 12 12 12 11 11 11 10 10 10 10 10 9 9 9 9 9 8 8 8 7 7
17 16 16 16 15 15 15 15 14 14 14 14 13 13 13 13 13 13 12 12 12 12 12 11 11 11 11 10 10 10 10 9 9 9 9 9 9 8 8 8 7 7 7
16 16 16 16 15 15 15 14 14 14 14 13 13 13 13 13 13 12 12 12 11 11 11 11 11 10 10 10 10 10 9 9 9 9 9 9 8 8 8 7 7 7 7
16 16 16 15 15 15 14 14 14 14 13 13 13 13 13 12 12 12 12 11 11 11 10 10 10 10 10 9 9 9 9 9 8 8 8 8 8 8 7 7 7 6 6
16 15 15 15 15 14 14 14 14 13 13 13 13 12 12 12 12 11 11 11 11 10 10 10 9 9 9 9 9 9 9 8 8 8 8 8 7 7 7 7 6 6 5
16 15 15 15 14 14 14 13 13 13 13 12 12 12 12 12 11 11 11 10 10 10 9 9 9 9 9 9 9 8 8 8 8 7 7 7 7 7 6 6 6 5 5
15 15 14 14 14 13 13 13 13 13 12 12 12 11 11 11 11 10 10 10 9 9 9 9 9 8 8 8 8 8 7 7 7 7 6 6 6 6 6 5 5 5 5
15 14 14 14 13 13 13 13 12 12 12 12 11 11 11 10 10 10 10 9 9 9 9 8 8 8 8 8 7 7 7 7 6 6 6 6 5 5 5 5 5 5 4
14 14 14 13 13 13 12 12 12 11 11 11 11 11 10 10 10 9 9 9 9 9 8 8 8 8 7 7 7 7 6 6 6 5 5 5 5 5 5 4 4 4 4
14 13 13 13 12 12 12 11 11 11 11 10 10 10 10 9 9 9 9 9 8 8 8 8 7 7 7 7 6 6 6 5 5 5 5 4 4 4 4 4 4 3 3
13 13 12 12 12 11 11 11 10 10 10 10 10 9 9 9 9 9 8 8 8 8 7 7 7 7 6 6 6 5 5 5 5 4 4 4 4 4 3 3 3 3 3
12 12 12 11 11 11 10 10 10 10 9 9 9 9 8 8 8 8 8 8 7 7 7 7 6 6 6 6 5 5 5 4 4 4 4 4 3 3 3 3 3 2 2
12 11 11 11 10 10 10 9 9 9 9 8 8 8 8 8 7 7 7 7 7 6 6 6 6 6 5 5 5 4 4 4 4 4 3 3 3 3 3 2 2 2 2
11 11 10 10 10 9 9 9 9 8 8 8 8 7 7 7 7 6 6 6 6 6 5 5 5 5 5 4 4 4 4 4 3 3 3 3 2 2 2 2 2 2 1
10 10 10 9 9 9 8 8 8 8 7 7 7 7 6 6 6 6 5 5 5 5 5 5 4 4 4 4 4 3 3 3 3 3 2 2 2 2 2 2 1 1 1
9 9 9 8 8 8 8 7 7 7 7 6 6 6 6 5 5 5 5 5 4 4 4 4 4 3 3 3 3 3 2 2 2 2 2 2 2 1 1 1 1 1 1
Wind_Speed
6 5 5 4 4 4 4 4 3 3 3 3 3 3 3 3 3 4 3 3 4 3 3 3 3 2 3 3 2 2 2 2 2 1 2 3 3 5 7 9 9 9 10
5 5 5 4 5 4 4 4 3 4 4 4 4 4 3 3 3 4 3 3 3 2 2 3 2 2 3 2 2 2 2 1 2 0 2 3 3 4 5 5 7 8 9
5 5 5 5 5 5 4 4 3 4 4 4 4 4 4 4 3 3 3 3 2 2 2 2 1 2 2 1 2 2 1 1 1 1 1 2 2 3 3 4 5 6 8
6 6 6 6 6 5 5 4 4 4 5 5 4 4 4 4 4 3 3 3 2 2 1 2 2 2 2 1 1 1 1 2 1 1 1 2 2 3 2 3 4 4 5
6 6 6 5 4 4 4 4 4 4 5 5 4 4 3 3 4 5 4 4 3 2 1 1 1 2 2 2 1 1 2 1 1 1 1 2 2 2 3 2 3 5 4
7 7 5 5 5 5 5 4 4 4 3 4 4 4 4 4 6 7 6 4 4 3 2 1 1 1 1 1 1 2 2 2 1 1 1 1 3 2 2 2 2 3 4
7 6 6 6 6 5 5 5 5 4 4 4 4 4 4 5 6 7 8 5 4 3 3 2 1 1 1 1 0 1 1 0 2 3 2 3 3 3 2 2 2 3 4
7 6 6 6 6 5 5 5 5 4 4 4 4 4 4 4 6 7 7 4 3 3 3 4 3 2 2 3 2 0 1 2 2 2 3 4 4 4 3 3 3 3 4
7 7 7 7 7 6 6 6 5 4 4 4 4 4 4 5 6 7 6 3 3 3 3 3 4 4 4 4 2 2 2 3 4 4 4 5 6 5 3 0 1 2 4
8 8 7 7 8 8 7 6 4 4 5 4 3 4 5 4 6 6 6 3 3 2 2 2 4 5 5 4 3 3 4 5 3 3 4 5 5 5 5 3 3 2 3
6 6 6 7 7 7 6 4 4 4 4 3 3 3 3 4 5 6 6 4 5 4 3 3 4 6 6 6 5 4 6 5 3 3 3 3 3 3 4 4 4 4 4
5 6 6 6 6 5 6 5 4 5 5 4 3 2 2 3 4 5 7 7 6 4 4 4 4 6 6 6 5 6 7 5 2 2 3 3 4 4 4 5 7 8 8
6 5 5 5 4 5 6 6 4 4 4 4 4 4 4 3 3 6 7 8 8 5 4 6 6 6 6 5 6 7 5 3 2 3 4 5 5 5 4 4 5 6 8
6 5 5 5 4 4 4 5 5 5 5 5 5 5 4 3 3 3 3 4 5 5 4 4 6 6 4 5 5 4 3 3 4 5 5 5 3 3 3 3 4 4 4
6 5 4 4 4 4 4 4 6 6 7 7 6 6 5 5 7 8 6 5 5 5 3 1 1 2 3 3 3 3 3 3 4 4 4 5 4 4 5 4 3 3 4
5 4 4 4 4 3 3 1 3 4 6 7 7 6 6 8 7 8 9 9 8 6 3 2 3 4 5 5 5 4 4 5 5 5 5 5 6 6 6 5 4 5 6
6 5 4 4 4 4 3 3 2 2 2 4 6 7 7 7 7 7 7 8 7 6 4 4 5 5 6 5 5 5 6 6 5 5 6 6 6 6 6 6 6 6 7
4 5 4 4 4 4 4 4 3 3 2 3 4 5 6 7 7 7 6 3 2 4 4 5 6 6 6 6 6 6 6 5 5 5 6 6 6 6 6 7 6 7 8
4 3 3 3 3 3 3 2 2 2 2 2 2 3 4 4 4 5 4 3 4 5 5 6 6 6 6 6 6 6 6 6 6 5 6 7 6 6 7 7 7 9 8
3 4 4 3 3 2 2 2 2 2 2 2 3 3 1 1 2 3 3 4 5 6 6 6 6 7 6 6 6 6 6 6 6 6 6 7 7 7 8 9 8 8 8
3 3 4 3 3 3 3 3 3 3 3 3 4 4 4 3 4 4 4 5 6 6 6 6 6 6 6 6 6 6 7 7 7 7 7 7 7 7 8 8 8 8 8
3 3 3 3 3 3 3 3 3 3 3 3 3 3 4 3 3 4 4 5 6 6 6 6 6 6 6 6 6 6 7 7 7 7 7 7 7 8 8 8 8 8 8
3 3 2 2 2 2 2 1 2 2 2 2 3 3 3 3 4 4 5 5 5 5 5 6 6 7 7 8 8 7 7 8 8 8 7 7 7 8 8 9 9 9 9
3 3 3 2 2 2 2 2 2 2 2 2 3 3 3 4 4 5 5 5 5 5 5 6 7 8 10 9 9 10 11 12 11 10 10 9 9 8 8 9 9 10 10
3 3 3 3 2 2 2 2 2 2 2 2 3 3 3 4 4 4 4 4 5 5 6 6 7 8 10 11 11 11 13 14 14 12 10 8 9 9 9 10 9 9 10
2 2 2 2 2 2 2 2 2 2 2 3 3 3 3 3 4 4 4 4 4 4 5 6 8 9 10 10 11 13 14 15 15 14 11 8 9 9 9 9 10 10 10
Wind_Direction
184 184 178 184 178 169 171 178 179 176 161 154 147 134 128 120 114 105 98 92 90 74 64 76 66 64 66 57 66 74 76 105 134 306 319 330 352 358 0 12 16 18 16
183 179 184 178 169 171 180 186 182 175 169 160 152 143 142 139 133 127 128 111 112 107 93 87 69 73 63 57 70 75 79 99 134 330 334 342 341 340 345 354 3 6 7
173 172 175 176 178 185 188 182 179 175 170 162 155 157 158 156 149 150 150 144 141 146 145 132 124 100 73 60 70 74 65 72 101 127 320 322 321 337 344 345 351 352 358
171 172 179 187 190 188 181 174 172 167 163 167 167 170 168 165 166 163 156 150 147 154 165 158 161 162 170 154 106 101 95 77 75 89 336 328 323 325 354 344 342 341 341
171 179 191 188 178 168 166 169 165 164 169 165 162 166 169 173 182 174 167 166 165 170 178 186 191 191 183 167 151 160 134 108 86 65 335 339 333 337 329 320 325 322 323
179 190 185 169 165 169 171 164 160 165 161 156 166 170 181 200 194 183 172 170 176 181 191 218 231 242 226 195 170 160 151 152 173 170 245 265 283 278 292 306 316 334 321
183 183 175 172 172 177 171 160 169 175 165 170 183 181 196 212 202 191 184 171 179 185 189 195 212 223 185 155 179 31 356 226 193 185 208 242 254 254 260 285 281 275 275
181 181 178 175 175 170 162 172 180 172 173 182 191 193 199 216 208 200 191 173 173 194 201 198 203 225 210 178 159 108 306 297 276 233 216 240 247 245 224 238 252 272 278
186 191 189 182 178 171 177 186 184 172 180 187 189 189 200 230 221 208 187 164 181 219 229 213 206 217 229 206 172 211 277 290 288 276 271 280 288 289 272 246 309 313 302
201 197 190 184 182 184 188 185 175 175 187 184 191 198 202 220 224 213 190 171 189 224 241 241 230 224 233 224 200 205 247 267 278 305 308 304 303 297 289 243 220 242 271
193 180 178 184 187 186 182 177 169 167 166 175 193 214 217 224 229 219 203 190 198 208 223 240 243 239 238 234 222 216 240 249 246 264 283 292 299 296 292 274 240 223 238
163 170 179 181 183 180 172 174 169 165 170 186 197 229 245 244 234 231 221 212 204 200 223 233 238 241 242 240 237 242 251 256 239 256 271 275 273 273 274 278 266 252 245
159 173 178 174 178 171 171 173 170 172 181 194 200 220 242 244 247 245 236 224 215 214 228 230 237 247 251 255 253 251 250 235 228 246 259 260 254 259 277 290 287 278 273
166 175 172 171 175 173 174 178 180 187 194 200 208 222 234 240 239 237 237 237 228 230 241 248 249 255 247 251 262 266 249 231 229 241 254 259 259 263 265 263 270 278 285
165 169 170 173 174 179 187 198 200 207 203 204 214 213 214 234 239 224 216 222 218 221 215 231 245 258 258 264 264 263 255 250 249 246 248 260 266 268 268 260 254 258 264
162 169 173 174 175 177 181 216 242 230 228 222 219 215 228 233 239 225 224 228 225 211 196 229 237 237 242 247 251 258 252 248 248 245 248 253 259 262 269 266 255 255 267
171 175 173 173 174 177 180 187 230 294 265 238 236 233 236 241 241 233 226 226 223 203 210 230 236 239 242 244 243 244 249 250 245 244 249 253 254 258 261 264 263 265 270
169 174 171 178 179 182 188 194 198 207 250 279 271 252 247 248 248 242 226 207 233 219 224 234 240 242 243 243 243 245 250 253 247 248 249 251 250 254 258 261 261 262 269
167 173 173 170 173 179 181 183 191 201 223 257 283 285 267 255 255 246 212 213 229 237 236 241 244 244 244 243 245 244 245 249 250 248 251 251 251 251 257 260 262 264 265
176 176 162 162 163 166 171 180 197 209 224 241 255 262 267 242 260 258 236 231 236 242 242 244 247 247 246 245 244 243 248 250 249 249 252 254 252 249 254 258 260 263 264
168 174 165 157 171 183 188 198 208 213 226 243 257 260 241 243 245 249 251 247 244 246 246 246 248 248 248 248 246 244 246 251 248 248 252 254 254 254 253 254 256 259 264
163 168 173 177 180 185 197 205 207 215 229 245 277 284 256 253 250 255 256 258 256 250 245 246 252 251 247 246 246 248 252 255 254 252 253 256 257 257 255 254 257 259 263
154 156 159 168 171 182 187 200 215 223 240 253 260 271 270 264 261 260 263 265 265 262 258 253 254 258 259 256 251 244 247 253 255 254 254 258 259 259 256 255 256 261 263
154 159 165 168 166 175 191 210 224 234 243 256 263 265 265 267 271 272 271 271 269 268 269 265 259 260 264 268 265 260 258 262 265 261 253 254 258 261 260 261 260 261 263
153 161 168 174 181 189 200 213 224 236 251 259 262 266 271 274 277 279 280 274 272 272 275 279 277 274 273 274 276 275 275 274 272 270 264 256 257 258 260 262 263 265 264
153 162 176 183 191 198 208 222 233 242 250 260 264 267 270 274 279 282 285 285 285 285 288 289 289 288 289 288 285 284 285 283 280 274 269 262 259 260 259 261 262 263 266
Height
1558 1559 1560 1561 1561 1562 1562 1562 1562 1563 1563 1563 1564 1564 1564 1564 1565 1564 1565 1565 1565 1565 1565 1565 1565 1565 1565 1565 1565 1564 1564 1563 1563 1563 1562 1561 1560 1558 1557 1555 1554 1553 1551
1556 1557 1558 1559 1559 1560 1560 1561 1561 1561 1562 1563 1563 1564 1564 1564 1565 1565 1565 1565 1565 1565 1565 1565 1565 1565 1565 1565 1565 1564 1564 1563 1563 1562 1561 1560 1559 1558 1556 1555 1553 1552 1551
1554 1555 1556 1557 1557 1558 1559 1559 1560 1560 1561 1561 1562 1563 1563 1564 1564 1564 1565 1565 1565 1565 1565 1565 1565 1565 1565 1565 1564 1564 1563 1562 1562 1561 1560 1559 1558 1557 1555 1554 1552 1551 1550
1551 1553 1554 1555 1555 1556 1557 1558 1558 1559 1559 1560 1561 1562 1562 1563 1564 1564 1564 1564 1565 1565 1565 1565 1565 1565 1564 1564 1563 1563 1562 1561 1561 1560 1558 1557 1556 1555 1554 1552 1550 1549 1548
1549 1550 1551 1553 1554 1554 1555 1556 1557 1557 1558 1559 1560 1560 1561 1562 1562 1563 1563 1564 1564 1564 1564 1564 1564 1564 1563 1563 1562 1562 1561 1560 1559 1558 1557 1555 1554 1553 1552 1550 1548 1547 1545
1546 1548 1549 1550 1551 1552 1553 1554 1555 1556 1557 1557 1558 1559 1560 1560 1561 1561 1562 1562 1562 1562 1563 1563 1563 1562 1562 1561 1561 1560 1560 1558 1557 1556 1555 1554 1552 1551 1550 1548 1546 1544 1542
1543 1545 1546 1548 1549 1550 1551 1552 1553 1554 1555 1556 1556 1557 1558 1559 1559 1560 1560 1560 1560 1560 1560 1561 1560 1560 1560 1559 1559 1558 1557 1556 1555 1554 1553 1551 1550 1549 1547 1545 1544 1542 1540
1540 1542 1544 1545 1547 1548 1549 1550 1551 1552 1553 1554 1554 1555 1556 1556 1557 1557 1558 1558 1558 1558 1558 1558 1558 1558 1557 1557 1556 1555 1554 1553 1552 1551 1550 1549 1548 1546 1545 1543 1541 1539 1537
1537 1539 1541 1543 1544 1545 1546 1547 1549 1550 1550 1551 1552 1553 1553 1554 1555 1555 1555 1555 1555 1555 1555 1555 1555 1555 1554 1554 1553 1552 1551 1550 1550 1548 1547 1546 1545 1543 1542 1540 1537 1535 1532
1534 1536 1538 1540 1541 1542 1544 1545 1546 1547 1548 1549 1549 1550 1550 1551 1552 1552 1552 1552 1552 1552 1552 1552 1551 1551 1551 1550 1549 1548 1547 1546 1546 1545 1544 1542 1541 1539 1538 1536 1534 1531 1528
1532 1534 1535 1537 1538 1539 1541 1542 1543 1544 1545 1545 1546 1547 1547 1548 1548 1548 1548 1548 1548 1548 1548 1548 1548 1547 1547 1546 1545 1544 1543 1543 1541 1540 1539 1538 1536 1535 1533 1531 1529 1527 1525
1529 1531 1532 1534 1535 1536 1538 1539 1539 1540 1541 1542 1542 1543 1543 1544 1544 1545 1545 1545 1545 1544 1544 1544 1544 1543 1543 1542 1541 1540 1539 1538 1537 1535 1534 1532 1530 1529 1527 1526 1524 1522 1521
1526 1527 1529 1530 1532 1533 1534 1535 1536 1536 1537 1538 1538 1539 1539 1540 1540 1541 1541 1541 1540 1540 1540 1539 1539 1539 1538 1537 1536 1535 1534 1533 1531 1530 1528 1526 1525 1524 1522 1520 1519 1517 1515
1523 1524 1525 1526 1528 1529 1530 1531 1532 1532 1533 1534 1534 1535 1535 1536 1536 1536 1536 1536 1536 1535 1535 1534 1534 1533 1532 1532 1531 1530 1529 1527 1526 1524 1522 1521 1520 1518 1516 1514 1512 1510 1507
1519 1521 1522 1523 1524 1525 1526 1527 1528 1529 1530 1530 1530 1531 1531 1531 1531 1532 1531 1531 1531 1530 1530 1529 1528 1527 1526 1525 1525 1524 1523 1522 1520 1518 1517 1515 1513 1512 1510 1508 1506 1504 1501
1516 1517 1518 1519 1520 1521 1522 1523 1524 1525 1525 1526 1526 1527 1526 1527 1527 1527 1526 1526 1526 1525 1524 1523 1522 1521 1520 1519 1518 1517 1516 1515 1513 1512 1510 1508 1507 1505 1503 1502 1500 1497 1494
1513 1514 1515 1516 1517 1517 1518 1519 1519 1520 1521 1521 1521 1521 1522 1522 1522 1521 1521 1521 1520 1520 1518 1517 1516 1515 1514 1513 1512 1511 1509 1508 1507 1505 1503 1502 1500 1498 1496 1494 1492 1490 1487
1509 1510 1511 1512 1513 1514 1514 1515 1515 1515 1516 1516 1517 1517 1516 1516 1516 1516 1516 1515 1514 1513 1512 1511 1510 1509 1508 1507 1505 1504 1503 1501 1500 1498 1496 1495 1493 1491 1489 1487 1485 1483 1481
1506 1507 1508 1509 1510 1510 1511 1511 1511 1512 1512 1511 1511 1512 1512 1511 1511 1511 1510 1509 1508 1507 1506 1504 1503 1502 1501 1500 1498 1497 1495 1494 1492 1491 1489 1487 1486 1484 1482 1480 1478 1476 1473
1503 1504 1505 1505 1506 1506 1507 1507 1507 1507 1507 1507 1507 1506 1506 1506 1505 1504 1504 1503 1501 1500 1499 1498 1496 1495 1494 1492 1491 1490 1488 1487 1485 1483 1482 1480 1478 1476 1474 1472 1470 1468 1466
1500 1501 1501 1502 1502 1502 1503 1503 1503 1503 1503 1502 1502 1502 1501 1501 1499 1498 1497 1496 1495 1493 1492 1491 1489 1488 1487 1485 1484 1482 1481 1479 1478 1476 1474 1472 1471 1469 1467 1465 1463 1461 1458
1496 1497 1497 1498 1498 1499 1499 1499 1499 1499 1498 1498 1497 1497 1496 1495 1493 1492 1491 1490 1488 1487 1486 1484 1482 1481 1479 1478 1476 1475 1473 1471 1470 1468 1466 1465 1463 1461 1459 1457 1455 1453 1451
1493 1493 1494 1494 1494 1495 1495 1495 1495 1495 1494 1493 1493 1492 1490 1489 1487 1486 1484 1483 1482 1480 1479 1477 1475 1473 1472 1470 1468 1467 1465 1463 1462 1460 1458 1456 1455 1453 1451 1448 1447 1445 1443
1489 1489 1490 1490 1490 1490 1490 1490 1490 1490 1489 1488 1487 1486 1485 1483 1482 1480 1478 1477 1475 1473 1471 1469 1467 1465 1463 1462 1460 1459 1457 1456 1454 1452 1450 1448 1446 1444 1442 1440 1438 1436 1435
1485 1485 1486 1486 1486 1486 1486 1486 1485 1485 1484 1483 1482 1481 1480 1478 1476 1474 1473 1471 1469 1466 1464 1462 1460 1458 1456 1454 1452 1451 1449 1447 1446 1444 1442 1440 1438 1436 1434 1432 1430 1428 1426
1482 1482 1482 1482 1482 1482 1481 1481 1481 1480 1480 1479 1478 1476 1475 1473 1471 1469 1467 1465 1463 1461 1458 1456 1454 1451 1449 1446 1444 1443 1441 1439 1437 1435 1433 1431 1429 1427 1426 1424 1422 1420 1418